Madrid, Spain

5:12 AM CET on February 20, 2017 (GMT +0100)
Madrid-Barajas Airport

Weather History for LEMD - October, 2013

Change the Weather History Date:

Monday, October 28, 2013

  Actual Average Record
Temperature  
Mean Temperature 58 °F -  
Max Temperature 70 °F 56 °F 80 °F (2006)
Min Temperature 46 °F 39 °F 37 °F (1998)
Degree Days  
Heating Degree Days 7    
Growing Degree Days 8 (Base 50)    
Moisture  
Dew Point 50 °F    
Average Humidity 75    
Maximum Humidity 100    
Minimum Humidity 46    
Precipitation  
Precipitation 0.00 in 0.08 in - ()
Sea Level Pressure  
Sea Level Pressure 30.11 in    
Wind  
Wind Speed 5 mph ()    
Max Wind Speed 13 mph    
Max Gust Speed 29 mph    
Visibility 14.3 miles    
Events      
Averages and records for this station are not official NWS values.
T = Trace of Precipitation, MM = Missing Value Source: Averaged Metar Reports

Daily Weather History Graph

Daily Weather History Graph

Search for Another Location

Airport or City:

Trip Planner

Search our weather history database for the weather conditions in past years. The results will help you decide how hot, cold, wet, or windy it might be!

Date:

Astronomy

Oct. 28, 2013 Rise Set
Actual Time 7:39 AM CET 6:15 PM CET
Civil Twilight 7:11 AM CET 6:43 PM CET
Nautical Twilight 6:39 AM CET 7:15 PM CET
Astronomical Twilight 6:07 AM CET 7:47 PM CET
Moon 1:17 AM CET (10/28) 2:51 PM CET (10/28)
Length of Visible Light 11h 32m
Length of Day
10h 36m
Last Quarter, 36% of the Moon is Illuminated
Oct 28
Last Quarter
Nov 3
New
Nov 10
First Quarter
Nov 17
Full
Nov 25
Last Quarter

Hourly Weather History & Observations

Time (CET) Temp. Windchill Dew Point Humidity Pressure Visibility Wind Dir Wind Speed Gust Speed Precip Events Conditions
12:00 AM 53.6 °F - 50.0 °F 88% 30.21 in - North 5.8 mph - N/A   Clear
12:30 AM 51.8 °F - 50.0 °F 94% 30.21 in - North 4.6 mph - N/A   Clear
1:00 AM 51.8 °F - 50.0 °F 94% 30.21 in - North 3.5 mph - N/A   Clear
1:30 AM 50.0 °F - 50.0 °F 100% 30.21 in - North 2.3 mph - N/A   Clear
2:00 AM 50.0 °F - 48.2 °F 94% 30.18 in - North 4.6 mph - N/A   Clear
2:30 AM 50.0 °F - 48.2 °F 94% 30.18 in - North 4.6 mph - N/A   Clear
3:00 AM 50.0 °F - 48.2 °F 94% 30.18 in - NNW 2.3 mph - N/A   Clear
3:30 AM 48.2 °F - 48.2 °F 100% 30.15 in - North 4.6 mph - N/A   Clear
4:00 AM 50.0 °F - 48.2 °F 94% 30.15 in - North 4.6 mph - N/A   Clear
4:30 AM 48.2 °F - 48.2 °F 100% 30.12 in - NNW 3.5 mph - N/A   Clear
5:00 AM 48.2 °F - 46.4 °F 93% 30.12 in - North 2.3 mph - N/A   Clear
5:30 AM 48.2 °F - 48.2 °F 100% 30.12 in - NNW 2.3 mph - N/A   Clear
6:00 AM 46.4 °F 45.2 °F 46.4 °F 100% 30.12 in - North 3.5 mph - N/A   Clear
6:30 AM 48.2 °F - 46.4 °F 93% 30.12 in - North 3.5 mph - N/A   Clear
7:00 AM 46 °F - 45 °F 95% 30.15 in 12 mi ESE 1.2 mph - -  
7:00 AM 46.4 °F - 46.4 °F 100% 30.12 in - Calm Calm - N/A   Clear
7:30 AM 46.4 °F - 46.4 °F 100% 30.12 in - Calm Calm - N/A   Clear
8:00 AM 46.4 °F 45.2 °F 46.4 °F 100% 30.12 in - North 3.5 mph - N/A   Clear
8:30 AM 48.2 °F - 46.4 °F 93% 30.12 in - NNW 4.6 mph - N/A   Clear
9:00 AM 50.0 °F - 48.2 °F 94% 30.15 in - North 5.8 mph - N/A   Clear
9:30 AM 51.8 °F - 48.2 °F 88% 30.15 in - NNW 5.8 mph - N/A   Clear
10:00 AM 55.4 °F - 50.0 °F 82% 30.15 in - Calm Calm - N/A   Clear
10:30 AM 57.2 °F - 50.0 °F 77% 30.15 in - North 5.8 mph - N/A   Clear
11:00 AM 60.8 °F - 50.0 °F 68% 30.15 in - NNE 2.3 mph - N/A   Clear
11:30 AM 62.6 °F - 50.0 °F 63% 30.15 in - SSW 2.3 mph - N/A   Clear
12:00 PM 64.4 °F - 51.8 °F 64% 30.15 in - Variable 2.3 mph - N/A   Clear
12:30 PM 64.4 °F - 51.8 °F 64% 30.12 in - SSE 5.8 mph - N/A   Clear
1:00 PM 67 °F - 53 °F 52% 30.06 in 12 mi South 8.1 mph - -   Overcast
1:00 PM 68.0 °F - 51.8 °F 56% 30.12 in - South 5.8 mph 19.6 mph N/A   Clear
1:30 PM 68.0 °F - 53.6 °F 60% 30.09 in - SSW 8.1 mph 20.7 mph N/A   Clear
2:00 PM 68.0 °F - 53.6 °F 60% 30.09 in - South 6.9 mph - N/A   Clear
2:30 PM 69.8 °F - 53.6 °F 56% 30.06 in - Variable 4.6 mph - N/A   Clear
3:00 PM 69.8 °F - 53.6 °F 56% 30.06 in - South 9.2 mph - N/A   Clear
3:30 PM 69.8 °F - 51.8 °F 53% 30.04 in - South 12.7 mph - N/A   Clear
4:00 PM 69.8 °F - 51.8 °F 53% 30.04 in - SSW 10.4 mph 26.5 mph N/A   Clear
4:30 PM 69.8 °F - 50.0 °F 49% 30.04 in - SSW 12.7 mph 28.8 mph N/A   Clear
5:00 PM 69.8 °F - 48.2 °F 46% 30.04 in - SW 9.2 mph - N/A   Clear
5:30 PM 68.0 °F - 46.4 °F 46% 30.04 in - SSW 9.2 mph - N/A   Clear
6:00 PM 66.2 °F - 50.0 °F 56% 30.04 in - WSW 6.9 mph - N/A   Clear
6:30 PM 66.2 °F - 53.6 °F 64% 30.06 in - West 6.9 mph - N/A   Clear
7:00 PM 64 °F - 54 °F 61% 30.01 in 19 mi WSW 8.1 mph - -   Clear
7:00 PM 64.4 °F - 53.6 °F 68% 30.06 in - WSW 8.1 mph - N/A   Clear
7:30 PM 64.4 °F - 53.6 °F 68% 30.06 in - South 3.5 mph - N/A   Clear
8:00 PM 62.6 °F - 51.8 °F 68% 30.06 in - SSE 4.6 mph - N/A   Clear
8:30 PM 62.6 °F - 50.0 °F 63% 30.06 in - SW 6.9 mph - N/A   Clear
9:00 PM 62.6 °F - 50.0 °F 63% 30.06 in - West 5.8 mph - N/A   Clear
9:30 PM 62.6 °F - 48.2 °F 59% 30.06 in - South 4.6 mph - N/A   Clear
10:00 PM 62.6 °F - 50.0 °F 63% 30.09 in - SW 8.1 mph - N/A   Clear
10:30 PM 60.8 °F - 46.4 °F 59% 30.06 in - West 10.4 mph - N/A   Clear
11:00 PM 60.8 °F - 46.4 °F 59% 30.09 in - West 10.4 mph 21.9 mph N/A   Clear
11:30 PM 59.0 °F - 46.4 °F 63% 30.09 in - West 11.5 mph - N/A   Clear